This is the latest recevied weather packets stored in our database for station/object K4CRS-13. If no packets are shown the sender has not sent any weather packets the latest 10 day(s).
| Time | Temp. | Humidity | Pressure | Rain* | Wind** | Luminosity | Snow |
|---|---|---|---|---|---|---|---|
| 1788045064 | 32.22° C | 54% | 1052.3 hPa | 0 mm | - | 83 W/m² | - |
| 1788044763 | 32.22° C | 54% | 1052.3 hPa | 0 mm | - | 94 W/m² | - |
| 1788044458 | 31.67° C | 55% | 1052.3 hPa | 0 mm | - | 107 W/m² | - |
| 1788044157 | 31.67° C | 55% | 1052.2 hPa | 0 mm | - | 120 W/m² | - |
| 1788043854 | 31.67° C | 54% | 1052.6 hPa | 0 mm | - | 109 W/m² | - |
| 1788043554 | 31.67° C | 56% | 1052.4 hPa | 0 mm | - | 118 W/m² | - |
| 1788043254 | 31.67° C | 55% | 1052.6 hPa | 0 mm | - | 95 W/m² | - |
| 1788042949 | 31.11° C | 55% | 1052.1 hPa | 0 mm | - | 151 W/m² | - |
| 1788042644 | 31.67° C | 54% | 1052.2 hPa | 0 mm | - | 94 W/m² | - |
| 1788042343 | 31.67° C | 54% | 1052.5 hPa | 0 mm | - | 146 W/m² | - |
| 1788042038 | 31.67° C | 54% | 1052.4 hPa | 0 mm | - | 139 W/m² | - |
| 1788041734 | 32.22° C | 52% | 1052.4 hPa | 0 mm | - | 133 W/m² | - |
| 1788041429 | 32.78° C | 51% | 1052.5 hPa | 0 mm | - | 141 W/m² | - |
| 1788041128 | 33.33° C | 51% | 1052.3 hPa | 0 mm | - | 181 W/m² | - |
| 1788040823 | 32.78° C | 49% | 1052.6 hPa | 0 mm | - | 354 W/m² | - |
| 1788040516 | 33.33° C | 47% | 1052.4 hPa | 0 mm | - | 386 W/m² | - |
| 1788040213 | 33.33° C | 49% | 1052.8 hPa | 0 mm | - | 391 W/m² | - |
| 1788039911 | 33.89° C | 48% | 1052.6 hPa | 0 mm | - | 407 W/m² | - |
| 1788039606 | 33.33° C | 47% | 1052.5 hPa | 0 mm | - | 156 W/m² | - |
| 1788039301 | 33.33° C | 47% | 1052.5 hPa | 0 mm | - | 435 W/m² | - |
| 1788038996 | 33.89° C | 48% | 1052.5 hPa | 0 mm | - | 449 W/m² | - |
| 1788038692 | 33.89° C | 48% | 1052.9 hPa | 0 mm | - | 439 W/m² | - |
| 1788038391 | 33.33° C | 46% | 1052.5 hPa | 0 mm | - | 473 W/m² | - |
| 1788038086 | 33.33° C | 46% | 1052.6 hPa | 0 mm | - | 475 W/m² | - |
| 1788037786 | 33.89° C | 46% | 1052.4 hPa | 0 mm | - | 494 W/m² | - |
* Rain latest hour (hover to see other rain measurements)
** Current wind speed in m/s (hover to see current wind gust speed)